Preview of NWS' New Version of Forecast
This preview is not operational and should not be used for support decisions.
Latest weather observations around

Craig Field / Selma (KSEM)

Using English Units (Switch to International System of Units)
Date/ Time (CDT) Wind (mph) Vis. (mi) Weather Sky Cond. Temp (°F) Rel. Humidity Wind Chill (°F) Heat Index (°F) Pressure Precip. (in)
Air Dwpt 6 hour Altimeter (inHg) Sea level (inHg) 1 hr 3 hr 6 hr
Max Min
Apr 19 17:35 NNW 13 10 Clear CLR 68 39     35%     30.13        
Apr 19 17:15 NNW 13 10 Clear CLR 70 41     35%     30.13        
Apr 19 16:55 NW 15 10 Clear CLR 68 41     37%     30.13        
Apr 19 16:35 NNW 8 10 Clear CLR 70 39     33%     30.13        
Apr 19 16:15 NW 13 10 Clear CLR 70 39     33%     30.13        
Apr 19 15:55 NNW 18 10 Clear CLR 72 39     31%   70 30.13        
Notice The following observation data may not be complete
Apr 19 15:35   10 Clear CLR          %              
Apr 19 15:15 NW 13 10 Clear CLR 70 39     33%     30.14        
Apr 19 14:55 NW 13 10 Clear CLR 70 39     33%     30.14        
Apr 19 14:35 NNW 13 10 Clear CLR 70 39     33%     30.15        
Apr 19 14:15 W 10 10 Clear CLR 70 41     35%     30.15        
Apr 19 13:55 WNW 13 10 Clear CLR 70 41     35%     30.15        
Apr 19 13:35 WNW 11 10 Clear CLR 70 41     35%     30.16        
Apr 19 13:15 WNW 13 10 Clear CLR 70 41     35%     30.15        
Apr 19 12:55 WNW 11 10 Clear CLR 70 41     35%     30.16        
Apr 19 12:35 W 16 10 Clear CLR 68 39     35%     30.15        
Apr 19 12:15 W 10 10 Clear CLR 68 41     37%     30.15        
Apr 19 11:55 W 14 10 Clear CLR 68 41     37%     30.15        
Apr 19 11:35 W 13 10 Clear CLR 68 41     37%     30.15        
Apr 19 11:15 WNW 15 10 Clear CLR 68 41     37%     30.15        
Apr 19 10:35 NNW 10 10 Clear CLR 66 43     43%     30.14        
Apr 19 10:15 WNW 14 10 Clear CLR 66 41     40%     30.14        
Notice The following observation data may not be complete
Apr 19 09:35   10 Clear CLR          %              
Apr 19 09:15 NW 14 10 Clear CLR 64 43     45%     30.12        
Apr 19 08:55 NNW 14 10 Clear CLR 64 43     45%     30.11        
Apr 19 08:35 NW 11 10 Clear CLR 64 46     52%     30.11        
Apr 19 08:15 NNW 11 10 Clear CLR 64 45     49%     30.1        
Apr 19 07:55 NNW 11 10 Clear CLR 63 48     59%     30.09        
Apr 19 07:35 NW 14 10 Clear CLR 63 54     72%     30.09        
Apr 19 07:15 NW 8 10 Clear CLR 63 55     77%     30.08        
Apr 19 06:55 NW 11 10 Clear CLR 63 55     77%     30.06        
Apr 19 06:35 WNW 7 10 Clear CLR 61 57     88%     30.05        
Apr 19 06:15 WNW 7 10 Mostly Clear FEW050 63 59     88%     30.03        
Apr 19 05:55 W 6 10 Mostly Clear FEW055 63 59     88%     30.02        
Apr 19 05:35 W 7 10 Mostly Clear FEW023 FEW055 63 59     88%     30.01        
Apr 19 05:15 WSW 7 10 Mostly Cloudy FEW044 BKN055 64 61     88%     30        
Apr 19 04:55 WSW 7 10 Mostly Clear FEW042 64 61     88%     30        
Apr 19 04:15 WSW 6 10 Clear CLR 64 61     88%     29.99        
Apr 19 03:55 SW 7 10 Clear CLR 64 61     88%     29.98        
Apr 19 03:35 SSW 7 10 Clear CLR 64 61     88%     29.97        
Apr 19 03:15 SW 7 10 Clear CLR 64 61     88%     29.97        
Apr 19 02:55 SW 5 10 Mostly Clear FEW042 FEW049 64 61     88%     29.97        
Apr 19 02:35 SSW 7 10 Partly Cloudy SCT050 66 61     83%     29.97        
Apr 19 02:15 SW 6 10 Mostly Clear FEW060 66 61     83%     29.98        
Apr 19 01:55 SSW 6 10 Mostly Cloudy BKN060 68 61     78%     29.98        
Apr 19 01:35 SW 6 10 Cloudy OVC060 68 61     78%     29.99        
Apr 19 01:15 SW 5 10 Cloudy OVC060 68 63     83%     29.99        
Notice The following observation data may not be complete
Apr 19 00:35   10 Cloudy OVC055          %              
Apr 19 00:15 SW 7 10 Cloudy OVC055 70 61     73%     30        
Apr 18 23:55 SW 10 10 Cloudy OVC055 70 61     73%     30        
Apr 18 23:35 SSW 8 10 Mostly Cloudy BKN060 68 61     78%     30        
Apr 18 23:15 SSW 11 10 Cloudy OVC060 70 61     73%     30        
Apr 18 22:55 SSW 8 10 Mostly Cloudy BKN060 70 61     73%     30        
Apr 18 22:35 SSW 9 10 Clear CLR 68 59     73%     30        
Apr 18 21:15 SSW 8 10 Clear CLR 72 57     60%   71 29.98        
Apr 18 20:55 SW 9 10 Clear CLR 72 57     60%   71 29.98        
Apr 18 20:35 SW 6 10 Clear CLR 72 57     60%   71 29.97        
Apr 18 20:15 WSW 5 10 Clear CLR 72 55     57%   71 29.97        
Apr 18 19:55 SW 6 10 Clear CLR 73 55     53%   73 29.96        
Apr 18 19:35 SW 7 10 Clear CLR 73 57     57%   73 29.95        
Apr 18 19:15 SW 6 10 Clear CLR 75 57     54%   75 29.95        
Apr 18 18:55 SW 6 10 Clear CLR 77 57     50%   77 29.94        
Apr 18 18:35 SW 5 10 Clear CLR 79 57     48%   79 29.94        
Apr 18 18:15 SW 8 10 Clear CLR 81 55     42%   81 29.94        
Apr 18 17:55 SW 11 10 Clear CLR 81 52     37%   80 29.93        
Apr 18 17:35 SW 10 10 Clear CLR 82 54     37%   81 29.93        
Apr 18 17:15 SW 11 10 Clear CLR 82 52     35%   81 29.93        
Apr 18 16:55 SW 11 10 Clear CLR 82 54     37%   81 29.94        
Apr 18 16:35 SW 10 10 Clear CLR 82 54     37%   81 29.94        
Apr 18 16:15 SW 16 10 Clear CLR 82 55     40%   82 29.94        
Apr 18 15:55 SSW 16 10 Clear CLR 82 55     40%   82 29.95        
Apr 18 15:35 SW 16 10 Clear CLR 82 55     40%   82 29.96        
Apr 18 15:15 SSW 14 10 Clear CLR 82 55     40%   82 29.97        
Apr 18 14:55 SW 13 10 Clear CLR 82 55     40%   82 29.98        
Apr 18 14:35 SSW 16 10 Clear CLR 81 55     42%   81 29.99        
Apr 18 14:15 SW 14 10 Clear CLR 81 55     42%   81 30.01        
Apr 18 13:55 WSW 16 10 Clear CLR 79 55     45%   78 30.01        
Apr 18 13:35 WSW 11 10 Clear CLR 79 57     48%   79 30.02        
Apr 18 13:15 SW 10 10 Clear CLR 77 55     47%   77 30.03        
Apr 18 12:55 WSW 11 10 Clear CLR 77 55     47%   77 30.04        
Apr 18 12:35 SSW 13 10 Clear CLR 77 55     47%   77 30.04        
Apr 18 12:15 WSW 9 10 Clear CLR 77 55     47%   77 30.04        
Apr 18 11:55 SW 10 10 Clear CLR 75 55     50%   75 30.05        
Apr 18 11:35 W 11 10 Clear CLR 75 57     54%   75 30.05        
Apr 18 11:15 W 11 10 Clear CLR 73 57     57%   73 30.06        
Apr 18 10:55 SW 13 10 Mostly Clear FEW026 72 57     60%   71 30.06        
Apr 18 10:35 SW 13 10 Mostly Clear FEW025 72 59     65%   71 30.05        
Apr 18 10:15 7 10 Partly Cloudy SCT021 70 59     69%     30.04        
Apr 18 09:55 SSW 14 10 Mostly Cloudy BKN018 68 59     73%     30.04        
Apr 18 09:35 SW 13 10 Cloudy OVC018 68 59     73%     30.04        
Apr 18 09:15 SW 10 10 Cloudy OVC019 66 59     78%     30.05        
Apr 18 08:55 SW 10 10 Cloudy OVC020 64 57     77%     30.04        
Apr 18 08:35 SSW 7 10 Cloudy OVC020 63 59     88%     30.04        
Apr 18 08:15 S 6 10 Mostly Cloudy BKN020 61 57     88%     30.04        
Apr 18 07:55 SSE 5 10 Partly Cloudy SCT004 59 57     94%     30.04        
Apr 18 07:35 Calm 10 Mostly Cloudy BKN003 57 55     94%     30.04        
Apr 18 07:15 Calm 10 Cloudy OVC004 55 54     94%     30.03        
Apr 18 06:55 S 3 10 Cloudy OVC005 54 52     94%     30.02        
Apr 18 06:35 Calm 10 Cloudy OVC006 54 52     94%     30.02        
Apr 18 06:15 Calm 10 Cloudy OVC008 54 52     94%     30        
Apr 18 05:55 Calm 1.25 Fog/Mist OVC009 54 52     94%     30        
Apr 18 05:35 SSE 3 5 Fog/Mist BKN010 52 52     100%     29.98        
Apr 18 05:15 SSE 5 5 Fog/Mist SCT012 52 52     100%     29.98        
Apr 18 04:55 SSE 6 10 Partly Cloudy SCT012 52 50     94%     29.98        
Apr 18 04:35 SSE 3 8 Clear CLR 52 50     94%     29.98        
Apr 18 04:15 SSE 3 10 Clear CLR 52 50     94%     29.97        
Apr 18 03:55 SSE 5 10 Clear CLR 52 50     94%     29.97        
Apr 18 03:35 SSE 3 10 Clear CLR 54 52     94%     29.97        
Apr 18 03:15 SSE 5 10 Clear CLR 52 50     94%     29.97        
Apr 18 02:55 SSE 6 10 Clear CLR 54 50     88%     29.97        
Apr 18 02:35 S 5 10 Clear CLR 55 52     88%     29.98        
Apr 18 02:15 S 7 10 Clear CLR 57 52     82%     29.98        
Apr 18 01:35 S 8 10 Clear CLR 57 50     77%     29.99        
Apr 18 01:15 S 7 10 Clear CLR 57 48     72%     29.99        
Apr 18 00:55 S 8 10 Clear CLR 57 48     72%     30        
Apr 18 00:35 S 7 10 Clear CLR 57 46     67%     30        
Apr 18 00:15 SSW 8 10 Clear CLR 59 45     59%     30        
Apr 17 23:55 S 8 10 Clear CLR 59 45     59%     30        
Apr 17 23:35 SSW 8 10 Clear CLR 61 45     55%     30        
Apr 17 23:15 SSW 8 10 Clear CLR 61 45     55%     30        
Apr 17 22:55 SSW 8 10 Clear CLR 63 45     52%     30        
Apr 17 22:35 SSW 10 10 Clear CLR 63 45     52%     30        
Apr 17 22:15 S 10 10 Clear CLR 63 45     52%     30        
Apr 17 21:55 SSW 9 10 Clear CLR 66 45     46%     30        
Apr 17 21:35 SSW 10 10 Clear CLR 66 46     49%     30        
Apr 17 21:15 S 10 10 Clear CLR 66 48     52%     29.99        
Apr 17 20:55 SSW 9 10 Clear CLR 68 46     46%     29.99        
Apr 17 20:35 S 9 10 Clear CLR 66 46     49%     29.99        
Apr 17 20:15 S 8 10 Clear CLR 66 46     49%     29.98        
Apr 17 19:55 S 7 10 Clear CLR 66 46     49%     29.98        
Apr 17 19:35 S 7 10 Clear CLR 68 46     46%     29.98        
Apr 17 19:15 S 8 10 Clear CLR 70 46     43%     29.98        
Apr 17 18:35 SSW 8 10 Clear CLR 75 45     34%   74 29.98        
Apr 17 18:15 SSW 9 10 Clear CLR 77 45     32%   76 29.99        
Apr 17 17:55 SW 9 10 Clear CLR 77 45     32%   76 29.99        
Apr 17 17:35 SW 9 10 Clear CLR 77 43     30%   76 30        
Apr 17 17:15 SSW 13 10 Clear CLR 79 43     28%   78 30        
Apr 17 16:55 SW 11 10 Clear CLR 79 43     28%   78 30        
Apr 17 16:35 SW 10 10 Clear CLR 79 43     28%   78 30        
Apr 17 16:15 7 10 Clear CLR 79 45     30%   78 30.01        
Apr 17 15:55 SSW 11 10 Clear CLR 79 45     30%   78 30.02        
Apr 17 15:35 SW 11 10 Clear CLR 77 45     32%   76 30.03        
Apr 17 15:15 SSW 11 10 Clear CLR 77 46     34%   76 30.04        
Apr 17 14:55 7 10 Clear CLR 77 46     34%   76 30.05        
Apr 17 14:35 WSW 10 10 Clear CLR 77 46     34%   76 30.06        
Apr 17 14:15 SW 11 10 Clear CLR 75 46     36%   74 30.07        
Apr 17 13:55 SSW 10 10 Clear CLR 73 45     36%   72 30.08        
Apr 17 13:35 SW 9 10 Clear CLR 73 46     38%   72 30.08        
Apr 17 13:15 6 10 Clear CLR 73 45     36%   72 30.09        
Apr 17 12:55 W 6 10 Clear CLR 72 43     35%   70 30.1        
Apr 17 12:35 W 11 10 Clear CLR 72 45     38%   70 30.11        
Apr 17 12:15 W 8 10 Clear CLR 72 46     41%   70 30.12        
Apr 17 11:55 WSW 7 10 Clear CLR 70 43     38%     30.13        
Apr 17 11:35 WSW 7 10 Clear CLR 68 43     40%     30.14        
Apr 17 11:15 WSW 6 10 Clear CLR 66 43     43%     30.15        
Apr 17 10:55 SW 6 10 Clear CLR 64 41     42%     30.16        
Apr 17 10:35 WSW 6 10 Clear CLR 64 41     42%     30.16        
Apr 17 10:15 SW 5 10 Clear CLR 63 39     42%     30.16        
Apr 17 09:55 6 10 Clear CLR 61 39     45%     30.16        
Apr 17 09:35 SSW 5 10 Clear CLR 59 39     48%     30.17        
Apr 17 09:15 S 6 10 Clear CLR 57 41     55%     30.17        
Apr 17 08:55 Calm 10 Clear CLR 54 43     67%     30.18        
Apr 17 08:35 Calm 10 Clear CLR 52 43     71%     30.18        
Apr 17 08:15 Calm 10 Clear CLR 50 43     76%     30.17        
Apr 17 07:55 Calm 10 Clear CLR 46 41     81%     30.17        
Apr 17 07:35 Calm 10 Clear CLR 45 41     87%     30.16        
Apr 17 07:15 Calm 10 Clear CLR 41 39     93%     30.15        
Apr 17 06:55 Calm 10 Clear CLR 39 37     93%     30.15        
Apr 17 06:35 Calm 10 Clear CLR 37 36     93%     30.14        
Apr 17 06:15 Calm 10 Clear CLR 36 34     93%     30.13        
Apr 17 05:55 Calm 10 Clear CLR 36 34     93%     30.13        
Apr 17 05:35 Calm 10 Clear CLR 37 36     93%     30.13        
Apr 17 05:15 Calm 10 Clear CLR 37 36     93%     30.13        
Apr 17 04:55 Calm 10 Clear CLR 37 36     93%     30.12        
Apr 17 04:35 Calm 10 Clear CLR 37 36     93%     30.12        
Apr 17 04:15 Calm 10 Clear CLR 36 36     100%     30.12        
Apr 17 03:55 Calm 10 Clear CLR 36 34     93%     30.12        
Apr 17 03:35 Calm 10 Clear CLR 37 36     93%     30.13        
Apr 17 03:15 Calm 10 Clear CLR 39 37     93%     30.12        
Apr 17 02:55 Calm 10 Clear CLR 37 36     93%     30.13        
Apr 17 02:35 Calm 10 Clear CLR 39 37     93%     30.12        
Apr 17 02:15 Calm 10 Clear CLR 39 37     93%     30.12        
Apr 17 01:55 SE 3 10 Clear CLR 39 37     93% 37   30.12        
Apr 17 01:35 SSE 5 10 Clear CLR 39 37     93% 36   30.13        
Apr 17 01:15 SE 3 10 Clear CLR 39 37     93% 37   30.12        
Apr 17 00:55 Calm 10 Clear CLR 39 37     93%     30.12        
Apr 17 00:35 SE 3 10 Clear CLR 39 37     93% 37   30.13        
Apr 17 00:15 Calm 10 Clear CLR 41 39     93%     30.13        
Apr 16 23:55 Calm 10 Clear CLR 43 41     93%     30.13        
Apr 16 23:35 Calm 10 Clear CLR 41 39     93%     30.12        
Apr 16 23:15 Calm 10 Clear CLR 41 39     93%     30.13        
Apr 16 22:55 Calm 10 Clear CLR 43 41     93%     30.13        
Apr 16 22:35 Calm 10 Clear CLR 41 39     93%     30.13        
Apr 16 22:15 Calm 10 Clear CLR 43 41     93%     30.13        
Apr 16 21:55 Calm 10 Clear CLR 45 41     87%     30.12        
Apr 16 21:35 Calm 10 Clear CLR 45 43     93%     30.12        
Apr 16 21:15 Calm 10 Clear CLR 46 43     87%     30.11        
Apr 16 20:55 Calm 10 Clear CLR 46 43     87%     30.11        
Apr 16 20:35 Calm 10 Clear CLR 46 41     81%     30.1        
Apr 16 20:15 Calm 10 Clear CLR 50 41     71%     30.09        
Apr 16 19:55 W 3 10 Clear CLR 54 39     58%     30.09        
Apr 16 19:35 WNW 5 10 Clear CLR 54 37     54%     30.09        
Apr 16 19:15 WNW 6 10 Clear CLR 55 37     51%     30.08        
Apr 16 18:55 WNW 7 10 Clear CLR 59 37     45%     30.08        
Apr 16 18:35 WNW 9 10 Clear CLR 61 36     39%     30.08        
Apr 16 18:15 W 9 10 Clear CLR 61 36     39%     30.08        
Apr 16 17:55 WNW 11 10 Clear CLR 63 36     36%     30.08        
Apr 16 17:35 W 13 10 Clear CLR 63 34     34%     30.09        
Jun 12 07:35 ESE 6 10 Clear CLR 77 72     83%   78 30.14        
Jun 11 21:15 Calm 10 Clear   77 73     89%   79 30.1        
Notice The following observation data may not be complete
Jun 11 20:35   10 Cloudy FEW055 OVC065          %              
Jun 11 17:35 SSE 6 10 Light Rain SCT032 BKN050 BKN065 73 70     89%   75 30.05        
Notice The following observation data may not be complete
Jun 11 17:15 SE 14 3 Clear     70      %     30.07        
Jun 11 14:55 E 9 10 Mostly Clear FEW047 FEW060 91 68     46%   96 30.07        
Jun 11 02:35 Calm 10 Mostly Clear FEW055 68 64     88%     30.05        
Jun 10 23:35 Calm 10 Clear CLR 70 64     83%     30.06        
Jun 10 12:55 SE 9 10 Mostly Cloudy FEW055 BKN080 86 59     40%   85 30.06        
Jun 09 22:55 Calm 10 Mostly Cloudy BKN060 BKN070 68 64     88%     29.98        
Jun 09 16:35 W 8 10 Clear CLR 86 57     38%   85 29.92        
Notice The following observation data may not be complete
Jun 09 12:35   10 Partly Cloudy SCT055          %              
Jun 08 08:35 Calm 10 Clear CLR 70 59     69%     29.92        
Jun 07 22:15 N 7 10 Mostly Cloudy BKN070 BKN080 73 57     57%   73 29.85        
Jun 07 20:15 NNE 5 10 Mostly Cloudy BKN060 BKN070 77 63     61%   77 29.81        
Jun 07 19:15 NNE 10 10 Mostly Clear FEW080 81 59     48%   81 29.8        
Notice The following observation data may not be complete
Jun 07 14:35   10 Mostly Clear FEW050 FEW055          %              
Jun 07 12:35 N 11 10 Mostly Cloudy BKN037 82 66     58%   85 29.77        
Jun 07 11:55 N 8 10 Partly Cloudy SCT032 SCT037 82 66     58%   85 29.77        
Jun 07 09:35 NNE 8 10 Clear CLR 77 64     65%   77 29.78        
Notice The following observation data may not be complete
Jun 06 09:15   10 Cloudy OVC005          %              
Jun 05 20:15 E 7 10 Cloudy BKN004 BKN080 OVC090 73 72     94%   75 29.79